Regional Weather Roundup
Issued by NWS Sterling, VA

Home | Current Version | Previous Version | Graphics & Text | Print | Product List | Glossary On
Versions: 1 2 3 4 5 6 7 8 9 10 11 12 13 14 15 16 17 18 19 20 21 22 23 24 25 26 27
000
ASUS41 KLWX 211911
RWRLWX

REGIONAL WEATHER ROUNDUP
NATIONAL WEATHER SERVICE BALTIMORE MD/WASHINGTON DC
300 PM EDT MON AUG 21 2017

Note: "FAIR" indicates few or no clouds below 12,000 feet
with no significant weather and/or obstructions to visibility.
 TC=TEMPERATURE CELSIUS

 * =Non NWS site. Station does not report precipitation (e.g. rain,
    snow, etc.), thunder, or fog.

DCZ001-MDZ009-015-VAZ040>042-051-053>054-212000-
WASHINGTON METRO

CITY           SKY/WX    TMP DP  RH WIND       PRES   REMARKS
WASHINGTON NAT PTSUNNY   87  76  69 S9        30.13F HX  97
DULLES         MOSUNNY   86  74  67 SW5       30.13F HX  94
ANDREWS AFB    MOSUNNY   85  74  68 S10       30.13F HX  92
FT BELVOIR     MOSUNNY   85  77  75 CALM      30.13F HX  95
QUANTICO       CLOUDY    86  79  79 SE6       30.14F THUNDER HX  99
COLLEGE PARK*  SUNNY     87  73  62 S3        30.12F HX  94
LEESBURG*      SUNNY     88  77  70 CALM      30.14F HX 100
MANASSAS*      LGT RAIN  77  71  82 SE13      30.14F
GAITHERSBURG*  PTSUNNY   86  74  67 CALM      30.15F HX  94

$$

MDZ006>007-011-014-212000-
BALTIMORE METRO

CITY           SKY/WX    TMP DP  RH WIND       PRES   REMARKS
BWI AIRPORT    MOSUNNY   84  77  79 SE8       30.12F HX  94
MD SCIENCE CTR   N/A     85  78  80 MISG      30.12F HX  96
MARTIN STATE   RAIN      82  79  89 SE12      30.15F HX  93
ANNAPOLIS      PTSUNNY   84  80  88 S12       30.13F HX  97
FORT MEADE*    SUNNY     82  75  78 SE3       30.15F

$$

MDZ012-015-019>023-212000-
MARYLAND EASTERN SHORE

CITY           SKY/WX    TMP DP  RH WIND       PRES   REMARKS
OCEAN CITY     SUNNY     78  71  79 S9        30.20F
SALISBURY      MOSUNNY   82  73  74 S8        30.17F
BAY BRIDGE AP* SUNNY     84  75  74 S10       30.14F HX  92
CAMBRIDGE*     SUNNY     82  73  74 S9G15     30.16F

$$

MDZ017>025-212000-
SOUTHERN MARYLAND

CITY           SKY/WX    TMP DP  RH WIND       PRES   REMARKS
PATUXENT RIVER MOSUNNY   82  76  81 SE13      30.15F
ST INIGOES     PTSUNNY   83  76  79 SE6       30.14F HX  91
LEONARDTOWN*   MOSUNNY   82  75  78 SE6       30.16F

$$

MDZ003>005-212000-
NORTH CENTRAL MARYLAND

CITY           SKY/WX    TMP DP  RH WIND       PRES   REMARKS
FREDERICK*     MOSUNNY   88  72  58 S3        30.16F HX  94
HAGERSTOWN APT SUNNY     86  70  58 S7        30.14F HX  90
WESTMINSTER*   CLOUDY    84  73  70 SW5       30.16F HX  91

$$

MDZ501>502-212000-
WESTERN MARYLAND

CITY           SKY/WX    TMP DP  RH WIND       PRES   REMARKS
OAKLAND*       SUNNY     72  63  73 CALM      30.26F
CUMBERLAND*    SUNNY     86  61  42 SW6       30.18F

$$

VAZ025>031-212000-
SHENANDOAH VALLEY

CITY           SKY/WX    TMP DP  RH WIND       PRES   REMARKS
WINCHESTER*    CLOUDY    81  70  69 CALM      30.15F
FRONT ROYAL*   SUNNY     86  73  66 CALM      30.13F HX  93
LURAY*         LGT RAIN  86  68  54 SW12      30.16S
NEW MARKET*    CLOUDY    76  67  73 CALM      30.15S
STAUNTON*      SUNNY     83  67  57 SW6       30.20S
WAYNESBORO*    CLOUDY    84  66  54 SW5       30.20F

$$

WVZ021-048>050-054>055-212000-
EASTERN WEST VIRGINIA PANHANDLE

CITY           SKY/WX    TMP DP  RH WIND       PRES   REMARKS
MARTINSBURG    SUNNY     84  72  67 SE6       30.13F
PETERSBURG*    MOSUNNY   85  71  64 W6        30.16F HX  90

$$

VAZ036>039-050-212000-
CENTRAL FOOTHILLS

CITY           SKY/WX    TMP DP  RH WIND       PRES   REMARKS
CHARLOTTESVILL CLOUDY    82  63  52 SW13G21   30.15F
CULPEPER*      MOSUNNY   89  74  61 S6        30.13F HX  97
ORANGE*        MOSUNNY   86  70  58 CALM      30.13F HX  90
GORDONSVILLE*  MOSUNNY   85  76  75 CALM      30.13F HX  94
WARRENTON*     PTSUNNY   86  71  59 E7        30.12F HX  91

$$

VAZ055>057-212000-
NORTH AND CENTRAL PIEDMONT

CITY           SKY/WX    TMP DP  RH WIND       PRES   REMARKS
FREDERICKSBRG* SUNNY     87  76  69 S7        30.12F HX  98
STAFFORD*      MOSUNNY   85  74  69 SE3       30.17F HX  93

$$

NCZ024-NYZ072-PAZ021-071-VAZ022-071-212000-
OTHER REGIONAL OBSERVATIONS

CITY           SKY/WX    TMP DP  RH WIND       PRES   REMARKS
NEW YORK CITY  PTSUNNY   81  66  60 VRB5      30.16F
PHILADELPHIA   PTSUNNY   84  67  56 S10       30.15F
PITTSBURGH     PTSUNNY   82  69  64 SW8       30.15F
ROANOKE        PTSUNNY   88  66  48 CALM      30.20F HX  90
RICHMOND       MOSUNNY   85  74  69 S8        30.15F HX  92
RALEIGH        MOSUNNY   88  69  53 SE6       30.18F HX  92

$$

ANZ530>537-212000-
MARINE OBSERVATIONS

STATION/POSITION TIME  TEMP    WIND        PRES
                       AIR SEA DIR/SP/G
                 (UTC) (F)     (DEG/KT/KT) (MB)
THOMAS PT LIGHT  1900   81 81  160/ 15/ 17   N/A
BALT KEY BRIDGE  1848   82     150/ 15/ 17 1019.6F
COVE POINT       1848   81     180/ 18/ 21 1021.8F
LEWISETTA        1848   84 85  170/ 11/ 14 1021.0F
SOLOMONS ISLAND  1842   82 83  130/ 13/ 15   N/A
PINEY POINT      1848          160/ 15/ 17   N/A

$$





USA.gov is the U.S. government's official web portal to all federal, state and local government web resources and services.